This demonstration page uses our WeatherBlox Daily Observations layout. Learn more.

39.29038, -76.61219

Hourly Observations for March 22, 2019

Temp ( °F °C ) Dew Point ( °F °C ) Humidity (%) Winds ( mph kmh ) Pressure ( in mb ) Visibility ( mi km ) Precip ( " mm )
12:54 am 00:54 undefined 47 8.3 43 6.1 86 86 undefined N/A 29.47 998 N/A 0.12 3.048
1:54 am 01:54 undefined 46 7.8 41 5 83 83 undefined N/A 29.47 998 N/A 0.04 1.016
2:54 am 02:54 undefined 44 6.7 39 3.9 83 83 undefined N/A 29.47 998 N/A 0.11 2.794
3:54 am 03:54 undefined 43 6.1 38 3.3 82 82 undefined N/A 29.48 998 N/A 0.15 3.81
4:54 am 04:54 undefined 44 6.7 38 3.3 79 79 undefined N/A 29.48 998 N/A 0.01 0.254
5:54 am 05:54 undefined 45 7.2 37 2.8 74 74 undefined N/A 29.52 1000 N/A 0 0
6:54 am 06:54 undefined 46 7.8 35 1.7 66 66 undefined N/A 29.53 1000 N/A 0 0
7:54 am 07:54 undefined 46 7.8 33 0.6 61 61 undefined N/A 29.56 1001 N/A 0 0
8:54 am 08:54 undefined 46 7.8 31 -0.6 56 56 undefined N/A 29.59 1002 N/A 0 0
9:54 am 09:54 undefined 47 8.3 31 -0.6 54 54 undefined N/A 29.61 1003 N/A 0 0
10:54 am 10:54 undefined 49 9.4 29 -1.7 46 46 undefined N/A 29.64 1004 N/A 0 0
11:54 am 11:54 undefined 49 9.4 29 -1.7 46 46 undefined N/A 29.64 1004 N/A 0 0
12:54 pm 12:54 undefined 49 9.4 28 -2.2 44 44 undefined N/A 29.61 1003 N/A 0 0
1:54 pm 13:54 undefined 50 10 28 -2.2 43 43 undefined N/A 29.61 1003 N/A 0 0
2:54 pm 14:54 undefined 51 10.6 28 -2.2 41 41 undefined N/A 29.58 1002 N/A 0 0
3:54 pm 15:54 undefined 49 9.4 29 -1.7 46 46 undefined N/A 29.57 1002 N/A 0 0
4:54 pm 16:54 undefined 50 10 32 0 50 50 undefined N/A 29.59 1002 N/A 0 0
5:54 pm 17:54 undefined 43 6.1 31 -0.6 63 63 undefined N/A 29.56 1001 N/A 0.08 2.032
6:54 pm 18:54 undefined 45 7.2 29 -1.7 54 54 undefined N/A 29.64 1004 N/A 0 0
7:54 pm 19:54 undefined 45 7.2 24 -4.4 44 44 undefined N/A 29.7 1006 N/A 0 0
8:54 pm 20:54 undefined 43 6.1 23 -5 45 45 undefined N/A 29.73 1007 N/A 0 0
9:54 pm 21:54 undefined 42 5.6 22 -5.6 45 45 undefined N/A 29.75 1007 N/A 0 0
10:54 pm 22:54 undefined 42 5.6 20 -6.7 41 41 undefined N/A 29.79 1009 N/A 0 0
11:54 pm 23:54 undefined 42 5.6 22 -5.6 45 45 undefined N/A 29.8 1009 N/A 0 0

Powered by AerisWeather